Time,TemperatureF,DewpointF,PressureIn,WindDirection,WindDirectionDegrees,WindSpeedMPH,WindSpeedGustMPH,Humidity,HourlyPrecipIn,Conditions,Clouds,dailyrainin,SoftwareType,DateUTC
2013-03-20 00:06:00,65.4,64.0,29.97,NE,40,0.0,0.0,94,0.00,,,0.00,weatherlink.com 1.10,2013-03-20 04:06:00,
2013-03-20 00:36:00,64.8,63.0,29.98,NE,40,0.0,0.0,95,0.00,,,0.00,weatherlink.com 1.10,2013-03-20 04:36:00,
2013-03-20 00:51:00,64.8,63.0,29.97,North,354,1.0,1.0,95,0.00,,,0.00,weatherlink.com 1.10,2013-03-20 04:51:00,
2013-03-20 01:06:00,65.4,64.0,29.97,North,11,0.0,1.0,95,0.00,,,0.00,weatherlink.com 1.10,2013-03-20 05:06:00,
2013-03-20 01:21:00,65.2,64.0,29.96,North,11,0.0,1.0,95,0.00,,,0.00,weatherlink.com 1.10,2013-03-20 05:21:00,
2013-03-20 01:36:00,64.9,64.0,29.96,North,11,0.0,0.0,95,0.00,,,0.00,weatherlink.com 1.10,2013-03-20 05:36:00,
2013-03-20 01:51:00,65.0,64.0,29.95,North,10,0.0,1.0,96,0.00,,,0.00,weatherlink.com 1.10,2013-03-20 05:51:00,
2013-03-20 02:06:00,64.8,64.0,29.94,North,8,0.0,1.0,96,0.00,,,0.00,weatherlink.com 1.10,2013-03-20 06:06:00,
2013-03-20 02:21:00,64.9,64.0,29.94,North,8,1.0,1.0,96,0.00,,,0.00,weatherlink.com 1.10,2013-03-20 06:21:00,
2013-03-20 02:36:00,64.9,64.0,29.94,North,9,0.0,1.0,96,0.00,,,0.00,weatherlink.com 1.10,2013-03-20 06:36:00,
2013-03-20 02:51:00,65.0,64.0,29.93,North,8,0.0,1.0,96,0.00,,,0.00,weatherlink.com 1.10,2013-03-20 06:51:00,
2013-03-20 03:06:00,65.0,64.0,29.93,North,8,0.0,0.0,96,0.00,,,0.00,weatherlink.com 1.10,2013-03-20 07:06:00,
2013-03-20 03:21:00,65.1,64.0,29.92,North,8,0.0,1.0,96,0.00,,,0.00,weatherlink.com 1.10,2013-03-20 07:21:00,
2013-03-20 03:36:00,65.2,64.0,29.92,North,9,0.0,1.0,96,0.00,,,0.00,weatherlink.com 1.10,2013-03-20 07:36:00,
2013-03-20 04:06:00,65.1,64.0,29.93,West,268,0.0,1.0,96,0.00,,,0.00,weatherlink.com 1.10,2013-03-20 08:06:00,
2013-03-20 04:21:00,65.4,64.0,29.93,West,276,0.0,1.0,96,0.00,,,0.00,weatherlink.com 1.10,2013-03-20 08:21:00,
2013-03-20 04:36:00,65.4,64.0,29.91,WNW,284,0.0,1.0,96,0.00,,,0.00,weatherlink.com 1.10,2013-03-20 08:36:00,
2013-03-20 04:51:00,65.3,64.0,29.92,WNW,283,0.0,1.0,96,0.00,,,0.00,weatherlink.com 1.10,2013-03-20 08:51:00,
2013-03-20 05:07:00,65.3,64.0,29.92,WNW,284,0.0,1.0,96,0.00,,,0.00,weatherlink.com 1.10,2013-03-20 09:07:00,
2013-03-20 05:21:00,65.4,64.0,29.93,WNW,283,0.0,1.0,96,0.00,,,0.00,weatherlink.com 1.10,2013-03-20 09:21:00,
2013-03-20 05:36:00,65.7,65.0,29.93,WNW,293,0.0,1.0,96,0.00,,,0.00,weatherlink.com 1.10,2013-03-20 09:36:00,
2013-03-20 05:52:00,65.9,65.0,29.93,WNW,292,0.0,1.0,95,0.00,,,0.00,weatherlink.com 1.10,2013-03-20 09:52:00,
2013-03-20 06:07:00,65.8,64.0,29.93,South,170,0.0,1.0,95,0.00,,,0.00,weatherlink.com 1.10,2013-03-20 10:07:00,
2013-03-20 06:22:00,65.7,64.0,29.94,South,181,0.0,1.0,95,0.00,,,0.00,weatherlink.com 1.10,2013-03-20 10:22:00,
2013-03-20 06:37:00,65.8,64.0,29.95,NNE,33,0.0,1.0,95,0.01,,,0.01,weatherlink.com 1.10,2013-03-20 10:37:00,
2013-03-20 06:52:00,65.5,64.0,29.95,NNE,33,0.0,1.0,95,0.01,,,0.01,weatherlink.com 1.10,2013-03-20 10:52:00,
2013-03-20 07:07:00,65.3,64.0,29.93,SE,141,1.0,1.0,95,0.02,,,0.02,weatherlink.com 1.10,2013-03-20 11:07:00,
2013-03-20 07:22:00,65.3,64.0,29.94,SSE,148,1.0,2.0,95,0.02,,,0.02,weatherlink.com 1.10,2013-03-20 11:22:00,
2013-03-20 07:37:00,65.0,64.0,29.93,East,97,3.0,5.0,95,0.01,,,0.02,weatherlink.com 1.10,2013-03-20 11:37:00,
2013-03-20 07:52:00,64.8,63.0,29.92,SW,225,3.0,4.0,95,0.01,,,0.02,weatherlink.com 1.10,2013-03-20 11:52:00,
2013-03-20 08:22:00,64.9,64.0,29.95,WNW,283,3.0,6.0,95,0.00,,,0.02,weatherlink.com 1.10,2013-03-20 12:22:00,
2013-03-20 08:37:00,65.7,64.0,29.94,SE,139,0.0,5.0,94,0.00,,,0.02,weatherlink.com 1.10,2013-03-20 12:37:00,
2013-03-20 08:52:00,67.6,64.0,29.93,SSW,206,1.0,6.0,88,0.00,,,0.02,weatherlink.com 1.10,2013-03-20 12:52:00,
2013-03-20 09:07:00,67.6,64.0,29.93,South,180,5.0,6.0,87,0.00,,,0.02,weatherlink.com 1.10,2013-03-20 13:07:00,
2013-03-20 09:22:00,68.2,64.0,29.95,SSW,201,3.0,8.0,86,0.00,,,0.02,weatherlink.com 1.10,2013-03-20 13:22:00,
2013-03-20 09:37:00,68.2,64.0,29.93,SSE,160,3.0,7.0,86,0.00,,,0.02,weatherlink.com 1.10,2013-03-20 13:37:00,
2013-03-20 09:52:00,68.5,64.0,29.94,SW,219,1.0,4.0,85,0.00,,,0.02,weatherlink.com 1.10,2013-03-20 13:52:00,
2013-03-20 10:07:00,68.7,64.0,29.94,SW,217,4.0,7.0,85,0.00,,,0.02,weatherlink.com 1.10,2013-03-20 14:07:00,
2013-03-20 10:22:00,68.8,64.0,29.95,SSW,200,3.0,4.0,83,0.00,,,0.02,weatherlink.com 1.10,2013-03-20 14:22:00,
2013-03-20 10:37:00,69.2,62.0,29.95,SW,229,2.0,5.0,79,0.00,,,0.02,weatherlink.com 1.10,2013-03-20 14:37:00,
2013-03-20 10:52:00,69.4,63.0,29.96,West,269,1.0,2.0,79,0.00,,,0.02,weatherlink.com 1.10,2013-03-20 14:52:00,
2013-03-20 11:07:00,69.7,63.0,29.97,West,271,0.0,1.0,79,0.00,,,0.02,weatherlink.com 1.10,2013-03-20 15:07:00,
2013-03-20 11:22:00,69.7,63.0,29.96,West,263,0.0,2.0,78,0.00,,,0.02,weatherlink.com 1.10,2013-03-20 15:22:00,
2013-03-20 11:37:00,69.5,63.0,29.97,WNW,288,0.0,3.0,79,0.00,,,0.02,weatherlink.com 1.10,2013-03-20 15:37:00,
2013-03-20 11:52:00,69.6,63.0,29.96,SW,221,1.0,2.0,79,0.00,,,0.02,weatherlink.com 1.10,2013-03-20 15:52:00,
2013-03-20 12:07:00,70.6,63.0,29.96,West,271,3.0,4.0,76,0.00,,,0.02,weatherlink.com 1.10,2013-03-20 16:07:00,
2013-03-20 12:22:00,72.4,63.0,29.96,WSW,257,1.0,4.0,72,0.00,,,0.02,weatherlink.com 1.10,2013-03-20 16:22:00,
2013-03-20 12:37:00,71.8,63.0,29.95,West,281,3.0,8.0,74,0.00,,,0.02,weatherlink.com 1.10,2013-03-20 16:37:00,
2013-03-20 12:52:00,71.1,63.0,29.93,West,268,1.0,7.0,76,0.00,,,0.02,weatherlink.com 1.10,2013-03-20 16:52:00,
2013-03-20 13:07:00,70.5,63.0,29.93,NW,317,4.0,7.0,78,0.00,,,0.02,weatherlink.com 1.10,2013-03-20 17:07:00,
2013-03-20 13:22:00,69.6,63.0,29.91,WSW,239,2.0,7.0,80,0.00,,,0.02,weatherlink.com 1.10,2013-03-20 17:22:00,
2013-03-20 13:37:00,69.0,63.0,29.90,SSE,158,2.0,14.0,82,0.00,,,0.02,weatherlink.com 1.10,2013-03-20 17:37:00,
2013-03-20 13:52:00,69.3,61.0,29.89,SW,232,7.0,13.0,74,0.00,,,0.02,weatherlink.com 1.10,2013-03-20 17:52:00,
2013-03-20 14:07:00,70.1,61.0,29.88,WSW,245,6.0,11.0,72,0.01,,,0.03,weatherlink.com 1.10,2013-03-20 18:07:00,
2013-03-20 14:22:00,70.1,62.0,29.89,West,271,4.0,11.0,75,0.01,,,0.03,weatherlink.com 1.10,2013-03-20 18:22:00,
2013-03-20 14:37:00,70.6,62.0,29.89,WSW,246,3.0,12.0,74,0.01,,,0.03,weatherlink.com 1.10,2013-03-20 18:37:00,
2013-03-20 14:52:00,71.3,63.0,29.88,WSW,239,3.0,9.0,75,0.01,,,0.03,weatherlink.com 1.10,2013-03-20 18:52:00,
2013-03-20 15:07:00,71.4,62.0,29.87,WSW,255,3.0,11.0,73,0.00,,,0.03,weatherlink.com 1.10,2013-03-20 19:07:00,
2013-03-20 15:22:00,71.3,62.0,29.87,NNW,333,3.0,9.0,72,0.00,,,0.03,weatherlink.com 1.10,2013-03-20 19:22:00,
2013-03-20 15:38:00,71.6,62.0,29.86,WSW,249,2.0,7.0,71,0.00,,,0.03,weatherlink.com 1.10,2013-03-20 19:38:00,
2013-03-20 15:53:00,71.8,62.0,29.84,SW,229,1.0,8.0,70,0.00,,,0.03,weatherlink.com 1.10,2013-03-20 19:53:00,
2013-03-20 16:08:00,71.3,61.0,29.83,WSW,240,1.0,6.0,71,0.00,,,0.03,weatherlink.com 1.10,2013-03-20 20:08:00,
2013-03-20 16:23:00,71.3,61.0,29.82,West,279,3.0,6.0,69,0.00,,,0.03,weatherlink.com 1.10,2013-03-20 20:23:00,
2013-03-20 16:38:00,70.8,61.0,29.83,WSW,243,4.0,6.0,70,0.00,,,0.03,weatherlink.com 1.10,2013-03-20 20:38:00,
2013-03-20 16:53:00,69.9,60.0,29.82,WNW,300,3.0,6.0,71,0.00,,,0.03,weatherlink.com 1.10,2013-03-20 20:53:00,
2013-03-20 17:08:00,69.5,61.0,29.82,West,280,1.0,4.0,74,0.00,,,0.03,weatherlink.com 1.10,2013-03-20 21:08:00,
2013-03-20 17:23:00,69.4,61.0,29.83,WNW,293,1.0,4.0,75,0.00,,,0.03,weatherlink.com 1.10,2013-03-20 21:23:00,
2013-03-20 17:38:00,69.0,62.0,29.84,NNW,332,2.0,8.0,78,0.00,,,0.03,weatherlink.com 1.10,2013-03-20 21:38:00,
2013-03-20 17:53:00,69.0,63.0,29.85,WNW,287,6.0,14.0,80,0.00,,,0.03,weatherlink.com 1.10,2013-03-20 21:53:00,
2013-03-20 18:08:00,68.4,63.0,29.86,WNW,302,3.0,14.0,82,0.00,,,0.03,weatherlink.com 1.10,2013-03-20 22:08:00,
2013-03-20 18:23:00,67.6,63.0,29.87,WNW,282,2.0,14.0,86,0.00,,,0.03,weatherlink.com 1.10,2013-03-20 22:23:00,
2013-03-20 18:38:00,66.4,63.0,29.89,West,273,6.0,13.0,89,0.00,,,0.03,weatherlink.com 1.10,2013-03-20 22:38:00,
2013-03-20 18:53:00,65.8,64.0,29.90,West,264,3.0,12.0,92,0.02,,,0.05,weatherlink.com 1.10,2013-03-20 22:53:00,
2013-03-20 19:08:00,65.8,64.0,29.91,NW,324,5.0,11.0,93,0.04,,,0.07,weatherlink.com 1.10,2013-03-20 23:08:00,
2013-03-20 19:23:00,65.3,63.0,29.92,NNW,331,2.0,14.0,93,0.08,,,0.11,weatherlink.com 1.10,2013-03-20 23:23:00,
2013-03-20 19:38:00,64.5,63.0,29.93,WNW,300,4.0,9.0,94,0.17,,,0.20,weatherlink.com 1.10,2013-03-20 23:38:00,
2013-03-20 19:53:00,64.4,63.0,29.93,NW,307,3.0,14.0,95,0.20,,,0.25,weatherlink.com 1.10,2013-03-20 23:53:00,
2013-03-20 20:08:00,64.3,63.0,29.91,NW,311,3.0,9.0,95,0.24,,,0.31,weatherlink.com 1.10,2013-03-21 00:08:00,
2013-03-20 20:23:00,64.5,63.0,29.92,NW,318,2.0,10.0,96,0.26,,,0.37,weatherlink.com 1.10,2013-03-21 00:23:00,
2013-03-20 20:38:00,63.3,62.0,29.90,North,349,6.0,11.0,94,0.17,,,0.37,weatherlink.com 1.10,2013-03-21 00:38:00,
2013-03-20 20:53:00,62.0,61.0,29.89,NNW,344,3.0,6.0,95,0.12,,,0.37,weatherlink.com 1.10,2013-03-21 00:53:00,
2013-03-20 21:08:00,61.8,60.0,29.90,West,278,3.0,6.0,95,0.06,,,0.37,weatherlink.com 1.10,2013-03-21 01:08:00,
2013-03-20 21:23:00,61.5,60.0,29.90,NW,321,1.0,6.0,95,0.00,,,0.37,weatherlink.com 1.10,2013-03-21 01:23:00,
2013-03-20 21:38:00,61.4,60.0,29.91,NW,314,0.0,1.0,95,0.00,,,0.37,weatherlink.com 1.10,2013-03-21 01:38:00,
2013-03-20 21:53:00,61.0,60.0,29.91,NNE,13,0.0,1.0,96,0.00,,,0.37,weatherlink.com 1.10,2013-03-21 01:53:00,
2013-03-20 22:08:00,60.9,60.0,29.91,East,98,0.0,0.0,96,0.00,,,0.37,weatherlink.com 1.10,2013-03-21 02:08:00,
2013-03-20 22:23:00,60.8,60.0,29.90,East,98,0.0,0.0,96,0.00,,,0.37,weatherlink.com 1.10,2013-03-21 02:23:00,
2013-03-20 22:38:00,60.5,59.0,29.90,East,98,0.0,0.0,96,0.00,,,0.37,weatherlink.com 1.10,2013-03-21 02:38:00,
2013-03-20 22:53:00,60.2,59.0,29.89,East,98,0.0,0.0,96,0.00,,,0.37,weatherlink.com 1.10,2013-03-21 02:53:00,
2013-03-20 23:08:00,60.2,59.0,29.89,East,99,0.0,2.0,96,0.00,,,0.37,weatherlink.com 1.10,2013-03-21 03:08:00,
2013-03-20 23:23:00,60.1,59.0,29.90,NNE,25,0.0,1.0,96,0.00,,,0.37,weatherlink.com 1.10,2013-03-21 03:23:00,
2013-03-20 23:38:00,59.9,59.0,29.91,NNE,23,0.0,1.0,97,0.00,,,0.37,weatherlink.com 1.10,2013-03-21 03:38:00,
2013-03-20 23:53:00,59.9,59.0,29.91,NNE,23,0.0,1.0,97,0.00,,,0.37,weatherlink.com 1.10,2013-03-21 03:53:00,